Location: Newark
(57.7279°N, 5.6916°W)
Time: 09:28:53
(UTC+00:00)

N. Korean satellite - Pass Details

Date: 10 December 2019
Orbit: 454 x 508 km, 97.2° (Epoch: 19 January)

Event Time Altitude Azimuth Distance (km) Brightness Sun altitude
Rises 17:13:59 0° 169° (S) 2,606 10.5 -11.5°
Reaches altitude 10° 17:16:05 10° 171° (S) 1,722 9.6 -11.7°
Maximum altitude 17:19:48 72° 257° (WSW) 536 6.9 -12.2°
Drops below altitude 10° 17:23:29 10° 342° (NNW) 1,717 9.3 -12.6°
Sets 17:25:35 0° 345° (NNW) 2,597 10.2 -12.9°
